Погода в Тайане

Китай     36°09′34″N   117°06′44″E
темп.,
°C
ветер,
м/с
пор.,
м/с
влажн.,
%
обл.,
%
осадки,
мм/ч
давл.,
гПа
погр.,
м
13 июня, вс
вс1323:00+25юв25658 0.0 1009157
02:00+24юв35690 0.0 1008123
05:00+23юв24723 0.2 100889
08:00+27ююв456065 0.2 1008659
11:00+32ю564512 0.0 10061881
14:00+35ю6732100 0.0 10032989
17:00+33ююз783666 0.0 10021738
20:00+29ююз35524 0.0 1002130
14 июня, пн
пн1423:00+26ю476428 0.0 1004302
02:00+25ююв37743 0.0 1003333
05:00+23ююв4883100 0.0 1002420
08:00+26ююв5770100 0.0 1002876
11:00+29ю6759100 0.1 10001363
14:00+25ююв4785100 2.4 999509
17:00+26ю5781100 0.4 997664
20:00+23ю2397100 3.8 997210
15 июня, вт
вт1523:00+23сз1198100 25.4 997144
02:00+23ссз2296100 34.6 996135
05:00+22с349643 0.3 996175
08:00+24с468399 0.3 998723
11:00+28св45621 0.0 998957
14:00+30св45500 0.0 9981376
17:00+30св55485 0.0 9981330
20:00+25св34650 0.0 100083
16 июня, ср
ср1623:00+22в237274 0.0 100289
02:00+21в228062 0.0 100242
05:00+20всв118499 0.0 100313
08:00+24вюв116584 0.0 1004598
11:00+28ю224980 0.0 10021338
14:00+31ю2240100 0.0 10011937
17:00+29юз2247100 0.0 10011138
20:00+26в2260100 0.0 1002139
17 июня, чт
чт1723:00+24вюв1169100 0.0 1003146
02:00+21юв1287100 1.4 1002242
05:00+21ююз1189100 0.2 1002239
08:00+21ююз2293100 1.1 1002239
11:00+21юз2295100 1.3 1002284
14:00+22зсз2486100 2.4 1002530
17:00+26сз256756 0.4 10011105
20:00+23всв117583 0.5 100211